Tacoma, WA
on Wednesday, November 21, 2012

Wednesday
Previous Day Next Day
Daily Summary
 ActualAverage (KSEA)Record (KSEA)
Temperature
Mean Temperature °F 44°F  
Max Temperature 47°F 50°F 62°F (1954)
Min Temperature 35°F 39°F 21°F (1977)
Degree Days
Heating Degree Days 24 21  
Month to date heating degree days 390  
Since 1 July heating degree days 987  
Cooling Degree Days 0 0  
Month to date cooling degree days 0  
Year to date cooling degree days 189  
Moisture
Dew Point 40°F   
Average Humidity 89    
Maximum Humidity 99    
Minimum Humidity 76    
Precipitation
Precipitation 0.27 in 0.23 in 1.26 in (1980)
Month to date precipitation 4.58  
Year to date precipitation 30.15  
Snow
Snow 0.00 in in 7.80 in (1985)
Month to date snowfall  
Since 1 July snowfall  
Snow Depth in   
Wind
Wind Speed 11 mph   
Max Wind Speed 25 mph   
Max Gust Speed 43 mph   
Visibility 10 miles   
Events Rain   

Key: T is trace of precipitation, MM is missing value
Source: NWS Daily Summary
Time(PST)TemperatureDew PointHumidity Pressure Visibility Wind DirectionWind SpeedGust SpeedPrecipitationEvents Conditions
12:57 AM 42.8°F 39.2°F 87% 29.52 in 10.0 miles Calm Calm - N/A Rain Light Rain
12:58 AM 43.3°F 39.2°F 85% 29.54 in 10.0 miles Calm Calm - N/A Rain Light Rain
1:58 AM 44.4°F 40.8°F 87% 29.54 in 10.0 miles SSE 3.5 mph - 0.01 in Rain Light Rain
2:01 AM 44.6°F 41.0°F 87% 29.53 in 10.0 miles South 4.6 mph - N/A   Mostly Cloudy
2:58 AM 46.2°F 41.0°F 82% 29.57 in 10.0 miles South 10.4 mph - 0.00 in   Mostly Cloudy
3:58 AM 47.5°F 40.1°F 76% 29.59 in 10.0 miles South 16.1 mph 29.9 mph 0.01 in   Overcast
4:33 AM 46.4°F 39.2°F 76% 29.57 in 10.0 miles South 17.3 mph 21.9 mph N/A Rain Light Rain
4:58 AM 46.4°F 39.7°F 78% 29.61 in 10.0 miles South 25.3 mph 36.8 mph 0.00 in Rain Light Rain
5:18 AM 44.6°F 41.0°F 87% 29.63 in 5.0 miles South 21.9 mph 42.6 mph N/A Rain Light Rain
5:23 AM 44.6°F 41.0°F 87% 29.64 in 6.0 miles South 20.7 mph 35.7 mph N/A   Overcast
5:28 AM 44.6°F 41.0°F 87% 29.65 in 10.0 miles SSW 17.3 mph 33.4 mph N/A   Overcast
5:30 AM 44.6°F 41.0°F 87% 29.65 in 10.0 miles SSW 17.3 mph 28.8 mph N/A   Overcast
5:35 AM 44.6°F 41.0°F 87% 29.66 in 10.0 miles SSW 16.1 mph 25.3 mph N/A   Overcast
5:48 AM 44.6°F 41.0°F 87% 29.68 in 10.0 miles SSW 19.6 mph 25.3 mph N/A Rain Light Rain
5:58 AM 43.5°F 40.8°F 90% 29.71 in 6.0 miles SSW 17.3 mph 26.5 mph 0.09 in   Overcast
6:13 AM 42.8°F 41.0°F 93% 29.70 in 10.0 miles SSW 15.0 mph - N/A Rain Light Rain
6:17 AM 42.8°F 41.0°F 93% 29.70 in 10.0 miles South 12.7 mph - N/A   Overcast
6:32 AM 42.8°F 41.0°F 93% 29.72 in 10.0 miles SSW 10.4 mph - N/A   Overcast
6:37 AM 42.8°F 41.0°F 93% 29.72 in 10.0 miles SSW 11.5 mph - N/A   Overcast
6:57 AM 42.8°F 41.0°F 93% 29.74 in 10.0 miles SSW 12.7 mph - N/A   Scattered Clouds
6:58 AM 42.8°F 40.8°F 93% 29.76 in 10.0 miles SSW 11.5 mph - 0.03 in   Scattered Clouds
7:53 AM 42.8°F 41.0°F 93% 29.77 in 10.0 miles South 16.1 mph 20.7 mph N/A Rain Light Rain
7:58 AM 42.4°F 40.6°F 93% 29.80 in 10.0 miles SSW 16.1 mph 20.7 mph 0.00 in Rain Light Rain
8:03 AM 42.8°F 39.2°F 87% 29.78 in 10.0 miles South 15.0 mph - N/A   Scattered Clouds
8:05 AM 42.8°F 39.2°F 87% 29.78 in 10.0 miles South 17.3 mph - N/A Rain Light Rain
8:22 AM 42.8°F 39.2°F 87% 29.79 in 10.0 miles South 10.4 mph - N/A   Mostly Cloudy
8:58 AM 43.3°F 41.4°F 93% 29.83 in 10.0 miles South 9.2 mph - 0.00 in   Overcast
9:04 AM 42.8°F 41.0°F 93% 29.82 in 10.0 miles South 8.1 mph - N/A Rain Light Rain
9:50 AM 44.6°F 41.0°F 87% 29.84 in 10.0 miles South 11.5 mph - N/A   Mostly Cloudy
9:58 AM 44.1°F 41.4°F 90% 29.86 in 10.0 miles South 12.7 mph - 0.00 in   Mostly Cloudy
10:21 AM 44.6°F 41.0°F 87% 29.86 in 10.0 miles South 18.4 mph - N/A Rain Light Rain
10:58 AM 43.0°F 40.6°F 91% 29.89 in 8.0 miles South 13.8 mph - 0.02 in   Overcast
11:18 AM 42.8°F 41.0°F 93% 29.88 in 10.0 miles South 12.7 mph - N/A Rain Light Rain
11:28 AM 42.8°F 41.0°F 93% 29.88 in 10.0 miles SSW 12.7 mph - N/A   Overcast
11:29 AM 42.8°F 41.0°F 93% 29.88 in 10.0 miles SSW 11.5 mph - N/A   Overcast
11:33 AM 42.8°F 41.0°F 93% 29.89 in 10.0 miles SSW 12.7 mph - N/A Rain Light Rain
11:43 AM 42.8°F 41.0°F 93% 29.89 in 10.0 miles South 16.1 mph 23.0 mph N/A Rain Light Rain
11:48 AM 42.8°F 41.0°F 93% 29.89 in 10.0 miles South 15.0 mph 24.2 mph N/A Rain Light Rain
11:58 AM 43.5°F 40.8°F 90% 29.91 in 10.0 miles SSW 18.4 mph 27.6 mph 0.02 in Rain Light Rain
12:00 PM 42.8°F 41.0°F 93% 29.89 in 10.0 miles South 17.3 mph 27.6 mph N/A   Mostly Cloudy
12:10 PM 44.6°F 41.0°F 87% 29.89 in 10.0 miles South 13.8 mph 23.0 mph N/A   Mostly Cloudy
12:31 PM 42.8°F 41.0°F 93% 29.90 in 10.0 miles South 16.1 mph - N/A Rain Light Rain
12:43 PM 44.6°F 41.0°F 87% 29.90 in 10.0 miles South 10.4 mph 20.7 mph N/A   Mostly Cloudy
12:58 PM 45.0°F 40.3°F 84% 29.93 in 10.0 miles South 13.8 mph - 0.00 in   Scattered Clouds
1:26 PM 46.4°F 39.2°F 76% 29.93 in 10.0 miles South 23.0 mph 28.8 mph N/A Rain Light Rain
1:36 PM 44.6°F 39.2°F 81% 29.94 in 7.0 miles SSW 23.0 mph 41.4 mph N/A Rain Light Rain
1:55 PM 44.6°F 41.0°F 87% 29.95 in 10.0 miles South 15.0 mph - N/A   Mostly Cloudy
1:58 PM 44.1°F 40.5°F 87% 29.97 in 10.0 miles South 13.8 mph - 0.02 in   Mostly Cloudy
2:45 PM 44.6°F 41.0°F 87% 29.99 in 10.0 miles SSW 10.4 mph 20.7 mph N/A Rain Light Rain
2:55 PM 44.6°F 41.0°F 87% 29.99 in 10.0 miles SSW 17.3 mph 21.9 mph N/A   Overcast
2:58 PM 45.0°F 40.5°F 84% 30.01 in 10.0 miles SSW 15.0 mph 21.9 mph 0.00 in   Overcast
3:17 PM 44.6°F 41.0°F 87% 30.01 in 10.0 miles SSW 11.5 mph - N/A Rain Light Rain
3:52 PM 44.6°F 41.0°F 87% 30.05 in 8.0 miles SSW 9.2 mph - N/A Rain Light Rain
3:55 PM 44.6°F 41.0°F 87% 30.04 in 7.0 miles WSW 13.8 mph 23.0 mph N/A Rain Light Rain
3:58 PM 43.7°F 41.2°F 91% 30.07 in 4.0 miles WSW 10.4 mph 23.0 mph 0.05 in Rain Rain
4:13 PM 42.8°F 39.2°F 87% 30.06 in 10.0 miles SSW 10.4 mph - N/A Rain Light Rain
4:18 PM 42.8°F 41.0°F 93% 30.06 in 10.0 miles SSW 8.1 mph - N/A Rain Light Rain
4:22 PM 42.8°F 41.0°F 93% 30.07 in 10.0 miles SSW 6.9 mph - N/A   Mostly Cloudy
4:58 PM 42.6°F 40.5°F 92% 30.11 in 10.0 miles SSW 10.4 mph - 0.02 in   Scattered Clouds
5:58 PM 41.2°F 39.7°F 95% 30.14 in 10.0 miles South 10.4 mph - N/A   Scattered Clouds
6:58 PM 39.6°F 38.5°F 96% 30.18 in 10.0 miles South 11.5 mph - N/A   Partly Cloudy
7:58 PM 39.0°F 37.9°F 96% 30.22 in 10.0 miles South 10.4 mph - N/A   Clear
8:58 PM 38.3°F 37.0°F 95% 30.26 in 10.0 miles South 8.1 mph - N/A   Partly Cloudy
9:58 PM 36.1°F 35.8°F 99% 30.28 in 10.0 miles South 8.1 mph - N/A   Clear
10:58 PM 36.3°F 35.8°F 98% 30.30 in 10.0 miles SSW 5.8 mph - N/A   Clear
11:58 PM 35.4°F 35.1°F 99% 30.32 in 10.0 miles SSE 4.6 mph - N/A   Clear
Moon Phase
Nov. 21 Nov. 28 Dec. 06 Dec. 13 Dec. 20
Sunrise:07:23 AM (PST) Moon Rise:01:09 PM (PST)
Sunset:04:28 PM (PST) Moon Set:12:23 AM (PST)

Copyright © 2014 The Weather Underground, Inc.